﻿#,"Date Time, GMT-04:00","Temp, °C (LGR S/N: 20468804, SEN S/N: 20462386)","Water Content, m³/m³ (LGR S/N: 20468804, SEN S/N: 20471702)"
1,10/19/19 10:51,7.594,0.2358
2,10/19/19 11:51,7.92,0.2351
3,10/19/19 12:51,8.295,0.2347
4,10/19/19 13:51,8.668,0.2344
5,10/19/19 14:51,9.262,0.2339
6,10/19/19 15:51,9.682,0.2335
7,10/19/19 16:51,9.928,0.2335
8,10/19/19 17:51,10.026,0.2335
9,10/19/19 18:51,9.977,0.2335
10,10/19/19 19:51,9.879,0.2335
11,10/19/19 20:51,9.756,0.2335
12,10/19/19 21:51,9.657,0.2335
13,10/19/19 22:51,9.632,0.2335
14,10/19/19 23:51,9.583,0.233
15,10/20/19 0:51,9.583,0.233
16,10/20/19 1:51,9.558,0.233
17,10/20/19 2:51,9.558,0.2335
18,10/20/19 3:51,9.534,0.233
19,10/20/19 4:51,9.509,0.233
20,10/20/19 5:51,9.509,0.233
21,10/20/19 6:51,9.485,0.233
22,10/20/19 7:51,9.485,0.2327
23,10/20/19 8:51,9.46,0.2327
24,10/20/19 9:51,9.558,0.2327
25,10/20/19 10:51,9.731,0.2327
26,10/20/19 11:51,10.001,0.2327
27,10/20/19 12:51,10.247,0.2323
28,10/20/19 13:51,10.541,0.2323
29,10/20/19 14:51,11.029,0.2323
30,10/20/19 15:51,11.394,0.2323
31,10/20/19 16:51,11.492,0.2318
32,10/20/19 17:51,11.492,0.2318
33,10/20/19 18:51,11.346,0.2318
34,10/20/19 19:51,11.078,0.2323
35,10/20/19 20:51,10.761,0.2323
36,10/20/19 21:51,10.516,0.2323
37,10/20/19 22:51,10.369,0.2323
38,10/20/19 23:51,10.271,0.2327
39,10/21/19 0:51,10.173,0.2323
40,10/21/19 1:51,10.1,0.2327
41,10/21/19 2:51,9.977,0.2323
42,10/21/19 3:51,9.879,0.2323
43,10/21/19 4:51,9.805,0.2327
44,10/21/19 5:51,9.805,0.2327
45,10/21/19 6:51,9.829,0.2327
46,10/21/19 7:51,9.805,0.2323
47,10/21/19 8:51,9.78,0.2327
48,10/21/19 9:51,9.829,0.2327
49,10/21/19 10:51,9.928,0.2323
50,10/21/19 11:51,10.026,0.2323
51,10/21/19 12:51,10.222,0.2318
52,10/21/19 13:51,10.418,0.2315
53,10/21/19 14:51,10.638,0.2315
54,10/21/19 15:51,10.81,0.2303
55,10/21/19 16:51,11.005,0.2254
56,10/21/19 17:51,11.224,0.2335
57,10/21/19 18:51,11.37,0.2367
58,10/21/19 19:51,11.467,0.2367
59,10/21/19 20:51,11.516,0.2367
60,10/21/19 21:51,11.54,0.2363
61,10/21/19 22:51,11.492,0.2363
62,10/21/19 23:51,11.297,0.2363
63,10/22/19 0:51,11.078,0.2363
64,10/22/19 1:51,10.834,0.2358
65,10/22/19 2:51,10.59,0.2363
66,10/22/19 3:51,10.418,0.2363
67,10/22/19 4:51,10.296,0.2363
68,10/22/19 5:51,10.173,0.2363
69,10/22/19 6:51,10.075,0.2358
70,10/22/19 7:51,10.001,0.2363
71,10/22/19 8:51,9.903,0.2358
72,10/22/19 9:51,9.829,0.2379
73,10/22/19 10:51,9.78,0.2383
74,10/22/19 11:51,9.731,0.2394
75,10/22/19 12:51,9.756,0.2414
76,10/22/19 13:51,9.854,0.241
77,10/22/19 14:51,9.78,0.241
78,10/22/19 15:51,9.657,0.2406
79,10/22/19 16:51,9.558,0.2406
80,10/22/19 17:51,9.46,0.2403
81,10/22/19 18:51,9.336,0.2414
82,10/22/19 19:51,9.238,0.2414
83,10/22/19 20:51,9.089,0.2414
84,10/22/19 21:51,8.916,0.2434
85,10/22/19 22:51,8.742,0.246
86,10/22/19 23:51,8.593,0.2471
87,10/23/19 0:51,8.519,0.2471
88,10/23/19 1:51,8.444,0.2475
89,10/23/19 2:51,8.344,0.2471
90,10/23/19 3:51,8.295,0.2471
91,10/23/19 4:51,8.245,0.2468
92,10/23/19 5:51,8.195,0.2468
93,10/23/19 6:51,8.145,0.2468
94,10/23/19 7:51,8.095,0.2464
95,10/23/19 8:51,8.045,0.2468
96,10/23/19 9:51,7.995,0.2468
97,10/23/19 10:51,7.995,0.2468
98,10/23/19 11:51,8.17,0.2464
99,10/23/19 12:51,8.295,0.246
100,10/23/19 13:51,8.394,0.2456
101,10/23/19 14:51,8.543,0.2449
102,10/23/19 15:51,8.643,0.2449
103,10/23/19 16:51,8.717,0.2445
104,10/23/19 17:51,8.717,0.2437
105,10/23/19 18:51,8.643,0.2434
106,10/23/19 19:51,8.444,0.2437
107,10/23/19 20:51,8.22,0.2434
108,10/23/19 21:51,8.095,0.243
109,10/23/19 22:51,8.045,0.2425
110,10/23/19 23:51,7.97,0.2452
111,10/24/19 0:51,7.895,0.2464
112,10/24/19 1:51,7.845,0.2479
113,10/24/19 2:51,7.795,0.249
114,10/24/19 3:51,7.795,0.249
115,10/24/19 4:51,7.77,0.2487
116,10/24/19 5:51,7.77,0.2483
117,10/24/19 6:51,7.745,0.2479
118,10/24/19 7:51,7.619,0.2479
119,10/24/19 8:51,7.444,0.2475
120,10/24/19 9:51,7.368,0.2475
121,10/24/19 10:51,7.444,0.2471
122,10/24/19 11:51,7.72,0.2468
123,10/24/19 12:51,7.995,0.246
124,10/24/19 13:51,8.145,0.2456
125,10/24/19 14:51,8.369,0.2452
126,10/24/19 15:51,8.519,0.2449
127,10/24/19 16:51,8.543,0.2445
128,10/24/19 17:51,8.494,0.2441
129,10/24/19 18:51,8.295,0.2441
130,10/24/19 19:51,8.095,0.2437
131,10/24/19 20:51,7.97,0.2434
132,10/24/19 21:51,7.87,0.2434
133,10/24/19 22:51,7.77,0.243
134,10/24/19 23:51,7.569,0.2434
135,10/25/19 0:51,7.393,0.243
136,10/25/19 1:51,7.268,0.243
137,10/25/19 2:51,7.142,0.2425
138,10/25/19 3:51,6.965,0.2425
139,10/25/19 4:51,6.864,0.2421
140,10/25/19 5:51,6.839,0.2421
141,10/25/19 6:51,6.763,0.2421
142,10/25/19 7:51,6.712,0.2418
143,10/25/19 8:51,6.661,0.2418
144,10/25/19 9:51,6.687,0.2414
145,10/25/19 10:51,6.839,0.241
146,10/25/19 11:51,7.041,0.2406
147,10/25/19 12:51,7.293,0.2406
148,10/25/19 13:51,7.544,0.2399
149,10/25/19 14:51,7.745,0.2394
150,10/25/19 15:51,7.845,0.2394
151,10/25/19 16:51,7.82,0.2399
152,10/25/19 17:51,7.72,0.2394
153,10/25/19 18:51,7.544,0.239
154,10/25/19 19:51,7.242,0.2394
155,10/25/19 20:51,6.889,0.2394
156,10/25/19 21:51,6.585,0.2394
157,10/25/19 22:51,6.306,0.2399
158,10/25/19 23:51,6.077,0.2394
159,10/26/19 0:51,5.847,0.2394
160,10/26/19 1:51,5.642,0.2399
161,10/26/19 2:51,5.462,0.2394
162,10/26/19 3:51,5.282,0.2394
163,10/26/19 4:51,5.128,0.2394
164,10/26/19 5:51,4.999,0.2399
165,10/26/19 6:51,4.869,0.2399
166,10/26/19 7:51,4.792,0.2399
167,10/26/19 8:51,4.74,0.2399
168,10/26/19 9:51,4.792,0.2394
169,10/26/19 10:51,5.076,0.2394
170,10/26/19 11:51,5.514,0.239
171,10/26/19 12:51,5.924,0.2387
172,10/26/19 13:51,6.458,0.2383
173,10/26/19 14:51,6.839,0.2383
174,10/26/19 15:51,7.015,0.2379
175,10/26/19 16:51,7.142,0.2374
176,10/26/19 17:51,7.192,0.2371
177,10/26/19 18:51,7.142,0.2367
178,10/26/19 19:51,7.091,0.2367
179,10/26/19 20:51,7.041,0.2367
180,10/26/19 21:51,6.99,0.2351
181,10/26/19 22:51,6.889,0.2456
182,10/26/19 23:51,6.839,0.249
183,10/27/19 0:51,6.763,0.26
184,10/27/19 1:51,6.788,0.2621
185,10/27/19 2:51,6.864,0.2635
186,10/27/19 3:51,6.965,0.2673
187,10/27/19 4:51,7.041,0.2705
188,10/27/19 5:51,7.066,0.2715
189,10/27/19 6:51,7.091,0.2677
190,10/27/19 7:51,7.142,0.2632
191,10/27/19 8:51,7.217,0.26
192,10/27/19 9:51,7.368,0.2571
193,10/27/19 10:51,7.544,0.2546
194,10/27/19 11:51,7.67,0.2528
195,10/27/19 12:51,7.87,0.2516
196,10/27/19 13:51,8.195,0.2505
197,10/27/19 14:51,8.419,0.2498
198,10/27/19 15:51,8.643,0.249
199,10/27/19 16:51,8.742,0.2487
200,10/27/19 17:51,8.717,0.2483
201,10/27/19 18:51,8.519,0.2475
202,10/27/19 19:51,8.245,0.2471
203,10/27/19 20:51,7.995,0.2471
204,10/27/19 21:51,7.77,0.2471
205,10/27/19 22:51,7.594,0.2468
206,10/27/19 23:51,7.419,0.246
207,10/28/19 0:51,7.192,0.246
208,10/28/19 1:51,6.99,0.246
209,10/28/19 2:51,6.813,0.246
210,10/28/19 3:51,6.636,0.2456
211,10/28/19 4:51,6.56,0.2452
212,10/28/19 5:51,6.509,0.2452
213,10/28/19 6:51,6.458,0.2449
214,10/28/19 7:51,6.458,0.2445
215,10/28/19 8:51,6.611,0.2441
216,10/28/19 9:51,6.763,0.2437
217,10/28/19 10:51,6.914,0.2437
218,10/28/19 11:51,7.116,0.243
219,10/28/19 12:51,7.343,0.2425
220,10/28/19 13:51,7.544,0.2421
221,10/28/19 14:51,7.645,0.2421
222,10/28/19 15:51,7.77,0.2418
223,10/28/19 16:51,7.82,0.2414
224,10/28/19 17:51,7.82,0.241
225,10/28/19 18:51,7.795,0.2406
226,10/28/19 19:51,7.72,0.2406
227,10/28/19 20:51,7.67,0.2403
228,10/28/19 21:51,7.619,0.2403
229,10/28/19 22:51,7.544,0.2403
230,10/28/19 23:51,7.494,0.2403
231,10/29/19 0:51,7.444,0.2399
232,10/29/19 1:51,7.368,0.2399
233,10/29/19 2:51,7.318,0.2399
234,10/29/19 3:51,7.242,0.239
235,10/29/19 4:51,7.116,0.2445
236,10/29/19 5:51,6.813,0.2468
237,10/29/19 6:51,6.611,0.2464
238,10/29/19 7:51,6.458,0.2464
239,10/29/19 8:51,6.382,0.2464
240,10/29/19 9:51,6.331,0.246
241,10/29/19 10:51,6.433,0.246
242,10/29/19 11:51,6.585,0.2452
243,10/29/19 12:51,6.839,0.2449
244,10/29/19 13:51,7.041,0.2449
245,10/29/19 14:51,7.091,0.2441
246,10/29/19 15:51,7.091,0.2437
247,10/29/19 16:51,7.041,0.2437
248,10/29/19 17:51,6.99,0.2441
249,10/29/19 18:51,6.839,0.2441
250,10/29/19 19:51,6.687,0.2437
251,10/29/19 20:51,6.585,0.2437
252,10/29/19 21:51,6.484,0.2437
253,10/29/19 22:51,6.382,0.2437
254,10/29/19 23:51,6.281,0.2434
255,10/30/19 0:51,6.23,0.2434
256,10/30/19 1:51,6.153,0.243
257,10/30/19 2:51,6.051,0.243
258,10/30/19 3:51,5.898,0.243
259,10/30/19 4:51,5.719,0.2425
260,10/30/19 5:51,5.539,0.2425
261,10/30/19 6:51,5.385,0.243
262,10/30/19 7:51,5.282,0.2425
263,10/30/19 8:51,5.205,0.2421
264,10/30/19 9:51,5.154,0.2421
265,10/30/19 10:51,5.257,0.2418
266,10/30/19 11:51,5.437,0.2418
267,10/30/19 12:51,5.719,0.2414
268,10/30/19 13:51,6.102,0.241
269,10/30/19 14:51,6.306,0.2406
270,10/30/19 15:51,6.357,0.2406
271,10/30/19 16:51,6.433,0.2403
272,10/30/19 17:51,6.408,0.2403
273,10/30/19 18:51,6.331,0.2399
274,10/30/19 19:51,6.204,0.2399
275,10/30/19 20:51,6.077,0.2399
276,10/30/19 21:51,5.975,0.2399
277,10/30/19 22:51,5.898,0.2394
278,10/30/19 23:51,5.796,0.2394
279,10/31/19 0:51,5.668,0.2425
280,10/31/19 1:51,5.514,0.2452
281,10/31/19 2:51,5.334,0.2468
282,10/31/19 3:51,5.024,0.2475
283,10/31/19 4:51,4.714,0.249
284,10/31/19 5:51,4.584,0.2505
285,10/31/19 6:51,4.428,0.2512
286,10/31/19 7:51,4.376,0.2512
287,10/31/19 8:51,4.298,0.2512
288,10/31/19 9:51,4.22,0.2516
289,10/31/19 10:51,4.22,0.252
290,10/31/19 11:51,4.324,0.252
291,10/31/19 12:51,4.532,0.2512
292,10/31/19 13:51,4.662,0.2512
293,10/31/19 14:51,4.506,0.2509
294,10/31/19 15:51,4.35,0.252
295,10/31/19 16:51,4.168,0.2528
296,10/31/19 17:51,3.958,0.2532
297,10/31/19 18:51,3.854,0.2528
298,10/31/19 19:51,3.749,0.2528
299,10/31/19 20:51,3.67,0.2524
300,10/31/19 21:51,3.67,0.252
301,10/31/19 22:51,3.643,0.2516
302,10/31/19 23:51,3.643,0.2516
303,11/1/19 0:51,3.643,0.2512
304,11/1/19 1:51,3.643,0.2512
305,11/1/19 2:51,3.643,0.2509
306,11/1/19 3:51,3.617,0.2509
307,11/1/19 4:51,3.591,0.2505
308,11/1/19 5:51,3.591,0.2505
309,11/1/19 6:51,3.564,0.2502
310,11/1/19 7:51,3.564,0.2502
311,11/1/19 8:51,3.538,0.2498
312,11/1/19 9:51,3.538,0.2498
313,11/1/19 10:51,3.591,0.2498
314,11/1/19 11:51,3.696,0.2498
315,11/1/19 12:51,3.801,0.2498
316,11/1/19 13:51,3.985,0.2505
317,11/1/19 14:51,4.324,0.2509
318,11/1/19 15:51,4.532,0.2505
319,11/1/19 16:51,4.636,0.2505
320,11/1/19 17:51,4.688,0.2502
321,11/1/19 18:51,4.61,0.2498
322,11/1/19 19:51,4.506,0.2498
323,11/1/19 20:51,4.454,0.2494
324,11/1/19 21:51,4.428,0.2494
325,11/1/19 22:51,4.402,0.2487
326,11/1/19 23:51,4.376,0.249
327,11/2/19 0:51,4.324,0.2498
328,11/2/19 1:51,4.22,0.2509
329,11/2/19 2:51,3.985,0.2512
330,11/2/19 3:51,3.775,0.2516
331,11/2/19 4:51,3.643,0.2516
332,11/2/19 5:51,3.564,0.2516
333,11/2/19 6:51,3.538,0.252
334,11/2/19 7:51,3.485,0.2524
335,11/2/19 8:51,3.459,0.2532
336,11/2/19 9:51,3.512,0.2532
337,11/2/19 10:51,3.67,0.2532
338,11/2/19 11:51,3.854,0.2532
339,11/2/19 12:51,3.906,0.2534
340,11/2/19 13:51,3.958,0.2538
341,11/2/19 14:51,4.272,0.2534
342,11/2/19 15:51,4.584,0.2532
343,11/2/19 16:51,4.662,0.2524
344,11/2/19 17:51,4.506,0.252
345,11/2/19 18:51,4.141,0.252
346,11/2/19 19:51,3.958,0.252
347,11/2/19 20:51,3.722,0.2516
348,11/2/19 21:51,3.564,0.252
349,11/2/19 22:51,3.433,0.2516
350,11/2/19 23:51,3.38,0.2516
351,11/3/19 0:51,3.354,0.2516
352,11/3/19 1:51,3.327,0.2512
353,11/3/19 2:51,3.301,0.2512
354,11/3/19 3:51,3.274,0.2509
355,11/3/19 4:51,3.248,0.2509
356,11/3/19 5:51,3.248,0.2509
357,11/3/19 6:51,3.221,0.2505
358,11/3/19 7:51,3.221,0.2502
359,11/3/19 8:51,3.195,0.2502
360,11/3/19 9:51,3.195,0.2498
361,11/3/19 10:51,3.274,0.2498
362,11/3/19 11:51,3.433,0.2494
363,11/3/19 12:51,3.643,0.249
364,11/3/19 13:51,3.906,0.2494
365,11/3/19 14:51,4.376,0.249
366,11/3/19 15:51,4.558,0.2487
367,11/3/19 16:51,4.584,0.2483
368,11/3/19 17:51,4.558,0.2483
369,11/3/19 18:51,4.48,0.2479
370,11/3/19 19:51,4.376,0.2479
371,11/3/19 20:51,4.324,0.2475
372,11/3/19 21:51,4.298,0.2475
373,11/3/19 22:51,4.324,0.2471
374,11/3/19 23:51,4.376,0.2468
375,11/4/19 0:51,4.376,0.2468
376,11/4/19 1:51,4.428,0.2468
377,11/4/19 2:51,4.48,0.246
378,11/4/19 3:51,4.532,0.2468
379,11/4/19 4:51,4.584,0.2479
380,11/4/19 5:51,4.636,0.2494
381,11/4/19 6:51,4.636,0.2505
382,11/4/19 7:51,4.662,0.2534
383,11/4/19 8:51,4.662,0.255
384,11/4/19 9:51,4.714,0.2546
385,11/4/19 10:51,4.818,0.2534
386,11/4/19 11:51,4.973,0.2528
387,11/4/19 12:51,5.128,0.252
388,11/4/19 13:51,5.282,0.2516
389,11/4/19 14:51,5.411,0.2512
390,11/4/19 15:51,5.488,0.2505
391,11/4/19 16:51,5.616,0.2502
392,11/4/19 17:51,5.616,0.2502
393,11/4/19 18:51,5.539,0.2494
394,11/4/19 19:51,5.437,0.2494
395,11/4/19 20:51,5.334,0.249
396,11/4/19 21:51,5.205,0.2502
397,11/4/19 22:51,5.154,0.2502
398,11/4/19 23:51,5.05,0.2498
399,11/5/19 0:51,4.947,0.2498
400,11/5/19 1:51,4.662,0.2498
401,11/5/19 2:51,4.558,0.2502
402,11/5/19 3:51,4.532,0.2502
403,11/5/19 4:51,4.48,0.2502
404,11/5/19 5:51,4.376,0.2502
405,11/5/19 6:51,4.272,0.2498
406,11/5/19 7:51,4.089,0.2498
407,11/5/19 8:51,3.958,0.2498
408,11/5/19 9:51,3.906,0.2498
409,11/5/19 10:51,3.958,0.2494
410,11/5/19 11:51,4.063,0.249
411,11/5/19 12:51,4.168,0.2487
412,11/5/19 13:51,4.168,0.2487
413,11/5/19 14:51,4.194,0.2483
414,11/5/19 15:51,4.141,0.2479
415,11/5/19 16:51,3.985,0.2479
416,11/5/19 17:51,3.801,0.2479
417,11/5/19 18:51,3.643,0.2475
418,11/5/19 19:51,3.433,0.2475
419,11/5/19 20:51,3.274,0.2475
420,11/5/19 21:51,3.116,0.2475
421,11/5/19 22:51,3.036,0.2471
422,11/5/19 23:51,2.93,0.2471
423,11/6/19 0:51,2.797,0.2468
424,11/6/19 1:51,2.637,0.2471
425,11/6/19 2:51,2.53,0.2468
426,11/6/19 3:51,2.396,0.2468
427,11/6/19 4:51,2.316,0.2464
428,11/6/19 5:51,2.236,0.2464
429,11/6/19 6:51,2.182,0.246
430,11/6/19 7:51,2.155,0.2456
431,11/6/19 8:51,2.128,0.2456
432,11/6/19 9:51,2.128,0.2456
433,11/6/19 10:51,2.101,0.2452
434,11/6/19 11:51,2.155,0.2449
435,11/6/19 12:51,2.182,0.2445
436,11/6/19 13:51,2.209,0.2445
437,11/6/19 14:51,2.262,0.2441
438,11/6/19 15:51,2.289,0.2441
439,11/6/19 16:51,2.316,0.2437
440,11/6/19 17:51,2.37,0.2441
441,11/6/19 18:51,2.396,0.2437
442,11/6/19 19:51,2.423,0.2437
443,11/6/19 20:51,2.45,0.2437
444,11/6/19 21:51,2.477,0.2441
445,11/6/19 22:51,2.477,0.2437
446,11/6/19 23:51,2.503,0.2437
447,11/7/19 0:51,2.53,0.2434
448,11/7/19 1:51,2.53,0.2437
449,11/7/19 2:51,2.557,0.2434
450,11/7/19 3:51,2.557,0.2434
451,11/7/19 4:51,2.584,0.2434
452,11/7/19 5:51,2.584,0.2437
453,11/7/19 6:51,2.584,0.2437
454,11/7/19 7:51,2.584,0.2434
455,11/7/19 8:51,2.584,0.2434
456,11/7/19 9:51,2.584,0.2437
457,11/7/19 10:51,2.61,0.2434
458,11/7/19 11:51,2.61,0.2434
459,11/7/19 12:51,2.61,0.2434
460,11/7/19 13:51,2.61,0.2437
461,11/7/19 14:51,2.61,0.2437
462,11/7/19 15:51,2.637,0.2437
463,11/7/19 16:51,2.637,0.2441
464,11/7/19 17:51,2.637,0.2449
465,11/7/19 18:51,2.61,0.2449
466,11/7/19 19:51,2.61,0.2449
467,11/7/19 20:51,2.61,0.2445
468,11/7/19 21:51,2.61,0.2449
469,11/7/19 22:51,2.584,0.2445
470,11/7/19 23:51,2.557,0.2449
471,11/8/19 0:51,2.557,0.2449
472,11/8/19 1:51,2.53,0.2452
473,11/8/19 2:51,2.53,0.2452
474,11/8/19 3:51,2.53,0.2452
475,11/8/19 4:51,2.503,0.2452
476,11/8/19 5:51,2.503,0.2456
477,11/8/19 6:51,2.503,0.2456
478,11/8/19 7:51,2.503,0.2456
479,11/8/19 8:51,2.503,0.2456
480,11/8/19 9:51,2.477,0.2456
481,11/8/19 10:51,2.477,0.2456
482,11/8/19 11:51,2.477,0.2456
483,11/8/19 12:51,2.477,0.2456
484,11/8/19 13:51,2.477,0.246
485,11/8/19 14:51,2.477,0.246
486,11/8/19 15:51,2.477,0.2464
487,11/8/19 16:51,2.45,0.2464
488,11/8/19 17:51,2.423,0.2468
489,11/8/19 18:51,2.423,0.2468
490,11/8/19 19:51,2.423,0.2468
491,11/8/19 20:51,2.423,0.2468
492,11/8/19 21:51,2.423,0.2471
493,11/8/19 22:51,2.423,0.2468
494,11/8/19 23:51,2.423,0.2468
495,11/9/19 0:51,2.423,0.2468
496,11/9/19 1:51,2.423,0.2468
497,11/9/19 2:51,2.423,0.2464
498,11/9/19 3:51,2.423,0.2464
499,11/9/19 4:51,2.423,0.2464
500,11/9/19 5:51,2.423,0.2464
501,11/9/19 6:51,2.423,0.2464
502,11/9/19 7:51,2.423,0.2464
503,11/9/19 8:51,2.423,0.2464
504,11/9/19 9:51,2.423,0.2468
505,11/9/19 10:51,2.423,0.2464
506,11/9/19 11:51,2.423,0.2464
507,11/9/19 12:51,2.423,0.2464
508,11/9/19 13:51,2.396,0.2468
509,11/9/19 14:51,2.396,0.2471
510,11/9/19 15:51,2.37,0.2471
511,11/9/19 16:51,2.37,0.2475
512,11/9/19 17:51,2.37,0.2479
513,11/9/19 18:51,2.343,0.2483
514,11/9/19 19:51,2.343,0.2487
515,11/9/19 20:51,2.316,0.2487
516,11/9/19 21:51,2.316,0.249
517,11/9/19 22:51,2.316,0.249
518,11/9/19 23:51,2.343,0.2487
519,11/10/19 0:51,2.343,0.2487
520,11/10/19 1:51,2.343,0.249
521,11/10/19 2:51,2.343,0.249
522,11/10/19 3:51,2.343,0.249
523,11/10/19 4:51,2.343,0.249
524,11/10/19 5:51,2.343,0.2494
525,11/10/19 6:51,2.343,0.2498
526,11/10/19 7:51,2.343,0.2498
527,11/10/19 8:51,2.343,0.2498
528,11/10/19 9:51,2.343,0.2498
529,11/10/19 10:51,2.343,0.2498
530,11/10/19 11:51,2.343,0.2498
531,11/10/19 12:51,2.343,0.2502
532,11/10/19 13:51,2.37,0.2502
533,11/10/19 14:51,2.37,0.2505
534,11/10/19 15:51,2.37,0.2505
535,11/10/19 16:51,2.37,0.2505
536,11/10/19 17:51,2.37,0.2505
537,11/10/19 18:51,2.343,0.2509
538,11/10/19 19:51,2.343,0.2509
539,11/10/19 20:51,2.316,0.2505
540,11/10/19 21:51,2.316,0.2505
541,11/10/19 22:51,2.316,0.2502
542,11/10/19 23:51,2.316,0.2498
543,11/11/19 0:51,2.316,0.2494
544,11/11/19 1:51,2.316,0.2498
545,11/11/19 2:51,2.262,0.2494
546,11/11/19 3:51,2.262,0.249
547,11/11/19 4:51,2.262,0.2487
548,11/11/19 5:51,2.262,0.2487
549,11/11/19 6:51,2.236,0.2483
550,11/11/19 7:51,2.209,0.2479
551,11/11/19 8:51,2.209,0.2479
552,11/11/19 9:51,2.209,0.2479
553,11/11/19 10:51,2.182,0.2471
554,11/11/19 11:51,2.209,0.2471
555,11/11/19 12:51,2.209,0.2468
556,11/11/19 13:51,2.262,0.2468
557,11/11/19 14:51,2.289,0.2464
558,11/11/19 15:51,2.316,0.2464
559,11/11/19 16:51,2.343,0.246
560,11/11/19 17:51,2.316,0.246
561,11/11/19 18:51,2.289,0.2456
562,11/11/19 19:51,2.262,0.2456
563,11/11/19 20:51,2.236,0.2452
564,11/11/19 21:51,2.209,0.2456
565,11/11/19 22:51,2.209,0.2452
566,11/11/19 23:51,2.182,0.2449
567,11/12/19 0:51,2.155,0.2449
568,11/12/19 1:51,2.128,0.2449
569,11/12/19 2:51,2.128,0.2445
570,11/12/19 3:51,2.128,0.2441
571,11/12/19 4:51,2.155,0.2441
572,11/12/19 5:51,2.155,0.2441
573,11/12/19 6:51,2.155,0.2441
574,11/12/19 7:51,2.182,0.2437
575,11/12/19 8:51,2.209,0.2437
576,11/12/19 9:51,2.209,0.2437
577,11/12/19 10:51,2.209,0.2434
578,11/12/19 11:51,2.236,0.243
579,11/12/19 12:51,2.236,0.243
580,11/12/19 13:51,2.262,0.243
581,11/12/19 14:51,2.262,0.2425
582,11/12/19 15:51,2.236,0.2425
583,11/12/19 16:51,2.236,0.2425
584,11/12/19 17:51,2.236,0.243
585,11/12/19 18:51,2.209,0.243
586,11/12/19 19:51,2.209,0.243
587,11/12/19 20:51,2.209,0.2434
588,11/12/19 21:51,2.209,0.2434
589,11/12/19 22:51,2.209,0.2437
590,11/12/19 23:51,2.209,0.2437
591,11/13/19 0:51,2.209,0.2437
592,11/13/19 1:51,2.209,0.2441
593,11/13/19 2:51,2.209,0.2441
594,11/13/19 3:51,2.209,0.2441
595,11/13/19 4:51,2.209,0.2441
596,11/13/19 5:51,2.209,0.2445
597,11/13/19 6:51,2.209,0.2445
598,11/13/19 7:51,2.209,0.2449
599,11/13/19 8:51,2.209,0.2449
600,11/13/19 9:51,2.209,0.2452
601,11/13/19 10:51,2.182,0.2452
602,11/13/19 11:51,2.209,0.2452
603,11/13/19 12:51,2.209,0.2452
604,11/13/19 13:51,2.209,0.2456
605,11/13/19 14:51,2.182,0.2456
606,11/13/19 15:51,2.182,0.2456
607,11/13/19 16:51,2.182,0.2456
608,11/13/19 17:51,2.182,0.2456
609,11/13/19 18:51,2.182,0.2456
610,11/13/19 19:51,2.182,0.2456
611,11/13/19 20:51,2.182,0.2452
612,11/13/19 21:51,2.182,0.2456
613,11/13/19 22:51,2.182,0.2452
614,11/13/19 23:51,2.182,0.2452
615,11/14/19 0:51,2.182,0.2452
616,11/14/19 1:51,2.182,0.2456
617,11/14/19 2:51,2.182,0.2456
618,11/14/19 3:51,2.182,0.2452
619,11/14/19 4:51,2.182,0.2452
620,11/14/19 5:51,2.182,0.246
621,11/14/19 6:51,2.182,0.2456
622,11/14/19 7:51,2.182,0.246
623,11/14/19 8:51,2.182,0.246
624,11/14/19 9:51,2.182,0.2464
625,11/14/19 10:51,2.155,0.2464
626,11/14/19 11:51,2.182,0.2464
627,11/14/19 12:51,2.155,0.2464
628,11/14/19 13:51,2.155,0.2468
629,11/14/19 14:51,2.155,0.2468
630,11/14/19 15:51,2.155,0.2468
631,11/14/19 16:51,2.155,0.2468
632,11/14/19 17:51,2.155,0.2468
633,11/14/19 18:51,2.155,0.2468
634,11/14/19 19:51,2.155,0.2468
635,11/14/19 20:51,2.155,0.2468
636,11/14/19 21:51,2.155,0.2471
637,11/14/19 22:51,2.155,0.2471
638,11/14/19 23:51,2.155,0.2471
639,11/15/19 0:51,2.155,0.2471
640,11/15/19 1:51,2.155,0.2475
641,11/15/19 2:51,2.155,0.2471
642,11/15/19 3:51,2.155,0.2471
643,11/15/19 4:51,2.155,0.2471
644,11/15/19 5:51,2.155,0.2475
645,11/15/19 6:51,2.155,0.2475
646,11/15/19 7:51,2.155,0.2471
647,11/15/19 8:51,2.155,0.2475
648,11/15/19 9:51,2.155,0.2479
649,11/15/19 10:51,2.155,0.2479
650,11/15/19 11:51,2.155,0.2479
651,11/15/19 12:51,2.155,0.2479
652,11/15/19 13:51,2.128,0.2483
653,11/15/19 14:51,2.128,0.2483
654,11/15/19 15:51,2.128,0.2483
655,11/15/19 16:51,2.101,0.2487
656,11/15/19 17:51,2.101,0.2494
657,11/15/19 18:51,2.101,0.2494
658,11/15/19 19:51,2.101,0.2498
659,11/15/19 20:51,2.101,0.2498
660,11/15/19 21:51,2.101,0.2502
661,11/15/19 22:51,2.101,0.2498
662,11/15/19 23:51,2.128,0.2498
663,11/16/19 0:51,2.128,0.2498
664,11/16/19 1:51,2.155,0.2498
665,11/16/19 2:51,2.155,0.2494
666,11/16/19 3:51,2.155,0.249
667,11/16/19 4:51,2.155,0.2487
668,11/16/19 5:51,2.155,0.2487
669,11/16/19 6:51,2.128,0.2483
670,11/16/19 7:51,2.101,0.2479
671,11/16/19 8:51,2.074,0.2475
672,11/16/19 9:51,2.047,0.2475
673,11/16/19 10:51,1.994,0.2471
674,11/16/19 11:51,1.994,0.2468
675,11/16/19 12:51,1.994,0.2464
676,11/16/19 13:51,2.047,0.2468
677,11/16/19 14:51,2.047,0.2464
678,11/16/19 15:51,2.074,0.246
679,11/16/19 16:51,2.101,0.2456
680,11/16/19 17:51,2.101,0.2456
681,11/16/19 18:51,2.101,0.2452
682,11/16/19 19:51,2.128,0.2449
683,11/16/19 20:51,2.128,0.2449
684,11/16/19 21:51,2.155,0.2452
685,11/16/19 22:51,2.155,0.2449
686,11/16/19 23:51,2.155,0.2449
687,11/17/19 0:51,2.155,0.2449
688,11/17/19 1:51,2.182,0.2449
689,11/17/19 2:51,2.182,0.2445
690,11/17/19 3:51,2.182,0.2445
691,11/17/19 4:51,2.155,0.2441
692,11/17/19 5:51,2.128,0.2441
693,11/17/19 6:51,2.101,0.2441
694,11/17/19 7:51,2.101,0.2437
695,11/17/19 8:51,2.101,0.2437
696,11/17/19 9:51,2.101,0.2437
697,11/17/19 10:51,2.101,0.2434
698,11/17/19 11:51,2.128,0.2434
699,11/17/19 12:51,2.155,0.243
700,11/17/19 13:51,2.155,0.243
701,11/17/19 14:51,2.155,0.243
702,11/17/19 15:51,2.182,0.243
703,11/17/19 16:51,2.182,0.243
704,11/17/19 17:51,2.182,0.243
705,11/17/19 18:51,2.182,0.2425
706,11/17/19 19:51,2.209,0.2425
707,11/17/19 20:51,2.209,0.2421
708,11/17/19 21:51,2.182,0.2425
709,11/17/19 22:51,2.209,0.2425
710,11/17/19 23:51,2.182,0.2425
711,11/18/19 0:51,2.209,0.2425
712,11/18/19 1:51,2.209,0.243
713,11/18/19 2:51,2.209,0.243
714,11/18/19 3:51,2.209,0.2434
715,11/18/19 4:51,2.209,0.2437
716,11/18/19 5:51,2.209,0.2445
717,11/18/19 6:51,2.209,0.2445
718,11/18/19 7:51,2.209,0.2445
719,11/18/19 8:51,2.209,0.2449
720,11/18/19 9:51,2.209,0.2452
721,11/18/19 10:51,2.236,0.2452
722,11/18/19 11:51,2.236,0.2456
723,11/18/19 12:51,2.236,0.2456
724,11/18/19 13:51,2.236,0.2464
725,11/18/19 14:51,2.236,0.2464
726,11/18/19 15:51,2.236,0.2468
727,11/18/19 16:51,2.209,0.2475
728,11/18/19 17:51,2.209,0.2483
729,11/18/19 18:51,2.209,0.2487
730,11/18/19 19:51,2.209,0.249
731,11/18/19 20:51,2.209,0.249
732,11/18/19 21:51,2.209,0.2494
733,11/18/19 22:51,2.182,0.2494
734,11/18/19 23:51,2.209,0.2494
735,11/19/19 0:51,2.209,0.2494
736,11/19/19 1:51,2.209,0.2494
737,11/19/19 2:51,2.182,0.2494
738,11/19/19 3:51,2.182,0.2494
739,11/19/19 4:51,2.209,0.2494
740,11/19/19 5:51,2.182,0.2494
741,11/19/19 6:51,2.209,0.2494
742,11/19/19 7:51,2.209,0.2494
743,11/19/19 8:51,2.209,0.249
744,11/19/19 9:51,2.209,0.2494
745,11/19/19 10:51,2.209,0.2494
746,11/19/19 11:51,2.209,0.2494